• In Netherlands
  • List of Countries
  • For 7 days
  • Water Temperature
  • Satellite Maps
  • Weather Map
  • Weather Widgets
  • user-avatar
    Login

    Hourly Weather Khulna

    Today, 29 April, Saturday

    Time Temperature Precipitation Wind Pressure Humidity
    00:00 +29°C° 0 mm 3 mps 754 mmHg 86%
    01:00 +29°C° 0 mm 4 mps 754 mmHg 86%
    02:00 +29°C° 0 mm 4 mps 754 mmHg 87%
    03:00 +29°C° 0 mm 4 mps 754 mmHg 87%
    04:00 +29°C° 0 mm 4 mps 754 mmHg 85%
    05:00 +30°C° 0 mm 4 mps 755 mmHg 82%
    06:00 +30°C° 0 mm 3 mps 755 mmHg 78%
    07:00 +31°C° 0 mm 3 mps 755 mmHg 73%
    08:00 +33°C° 0 mm 4 mps 756 mmHg 67%
    09:00 +34°C° 0 mm 4 mps 756 mmHg 62%
    10:00 +37°C° 0 mm 4 mps 756 mmHg 52%
    11:00 +40°C° 0 mm 4 mps 756 mmHg 42%
    12:00 +42°C° 0 mm 4 mps 756 mmHg 33%
    13:00 +43°C° 0 mm 4 mps 755 mmHg 31%
    14:00 +43°C° 0 mm 4 mps 754 mmHg 29%
    15:00 +45°C° 0 mm 5 mps 753 mmHg 27%
    16:00 +42°C° 0 mm 5 mps 753 mmHg 35%
    17:00 +39°C° 0 mm 6 mps 753 mmHg 44%
    18:00 +36°C° 0 mm 7 mps 752 mmHg 52%
    19:00 +35°C° 0 mm 7 mps 753 mmHg 60%
    20:00 +33°C° 0 mm 6 mps 753 mmHg 69%
    21:00 +32°C° 0 mm 6 mps 754 mmHg 77%
    22:00 +30°C° 0 mm 6 mps 754 mmHg 80%
    23:00 +30°C° 0 mm 5 mps 754 mmHg 83%

    Tomorrow, 30 April, Sunday

    Time Temperature Precipitation Wind Pressure Humidity
    00:00 +29°C° 0 mm 5 mps 754 mmHg 85%
    01:00 +29°C° 0 mm 4 mps 754 mmHg 86%
    02:00 +29°C° 0 mm 4 mps 754 mmHg 86%
    03:00 +29°C° 0 mm 3 mps 754 mmHg 87%
    04:00 +29°C° 0.1 mm 3 mps 754 mmHg 85%
    05:00 +30°C° 0.1 mm 3 mps 754 mmHg 83%
    06:00 +30°C° 0.1 mm 3 mps 755 mmHg 80%
    07:00 +33°C° 0 mm 4 mps 755 mmHg 72%
    08:00 +34°C° 0 mm 4 mps 755 mmHg 64%
    09:00 +36°C° 0 mm 5 mps 756 mmHg 56%
    10:00 +39°C° 0 mm 5 mps 756 mmHg 47%
    11:00 +41°C° 0 mm 6 mps 755 mmHg 39%
    12:00 +44°C° 0 mm 6 mps 755 mmHg 30%
    13:00 +44°C° 0 mm 6 mps 754 mmHg 29%
    14:00 +45°C° 0 mm 6 mps 754 mmHg 27%
    15:00 +45°C° 0 mm 7 mps 753 mmHg 26%
    16:00 +43°C° 0 mm 7 mps 753 mmHg 34%
    17:00 +39°C° 0 mm 7 mps 752 mmHg 43%
    18:00 +37°C° 0 mm 8 mps 752 mmHg 51%
    19:00 +34°C° 0 mm 7 mps 753 mmHg 60%
    20:00 +33°C° 0 mm 6 mps 754 mmHg 68%
    21:00 +32°C° 0 mm 5 mps 754 mmHg 76%
    22:00 +30°C° 0 mm 5 mps 755 mmHg 78%
    23:00 +30°C° 0 mm 4 mps 755 mmHg 79%

    Day after tomorrow, 1 May, Monday

    Time Temperature Precipitation Wind Pressure Humidity
    00:00 +30°C° 0 mm 4 mps 755 mmHg 81%
    01:00 +30°C° 0 mm 4 mps 755 mmHg 81%
    02:00 +30°C° 0 mm 3 mps 755 mmHg 81%
    03:00 +30°C° 0 mm 3 mps 755 mmHg 81%
    04:00 +30°C° 0 mm 3 mps 755 mmHg 81%
    05:00 +30°C° 0 mm 3 mps 755 mmHg 82%
    06:00 +30°C° 0 mm 3 mps 755 mmHg 83%
    07:00 +32°C° 0 mm 4 mps 756 mmHg 76%
    08:00 +33°C° 0 mm 5 mps 756 mmHg 70%
    09:00 +35°C° 0 mm 7 mps 757 mmHg 63%
    10:00 +36°C° 0 mm 6 mps 756 mmHg 57%
    11:00 +38°C° 0 mm 6 mps 756 mmHg 51%
    12:00 +40°C° 0 mm 6 mps 756 mmHg 45%
    13:00 +40°C° 0 mm 6 mps 755 mmHg 42%
    14:00 +41°C° 0 mm 6 mps 754 mmHg 39%
    15:00 +42°C° 0 mm 6 mps 753 mmHg 36%
    16:00 +40°C° 0 mm 6 mps 753 mmHg 41%
    17:00 +39°C° 0 mm 6 mps 753 mmHg 46%
    18:00 +36°C° 0 mm 6 mps 753 mmHg 51%
    19:00 +35°C° 0 mm 6 mps 754 mmHg 58%
    20:00 +33°C° 0 mm 6 mps 755 mmHg 66%
    21:00 +32°C° 0 mm 6 mps 756 mmHg 74%
    22:00 +32°C° 0 mm 5 mps 756 mmHg 75%
    23:00 +32°C° 0 mm 4 mps 756 mmHg 75%

    2 May, Tuesday

    Time Temperature Precipitation Wind Pressure Humidity
    00:00 +31°C° 0 mm 3 mps 755 mmHg 75%
    01:00 +32°C° 0 mm 4 mps 755 mmHg 77%
    02:00 +30°C° 0 mm 5 mps 755 mmHg 79%
    03:00 +30°C° 0 mm 6 mps 754 mmHg 80%
    04:00 +30°C° 0 mm 5 mps 755 mmHg 81%
    05:00 +30°C° 0 mm 4 mps 755 mmHg 81%
    06:00 +30°C° 0 mm 2 mps 756 mmHg 82%
    07:00 +31°C° 0.1 mm 3 mps 756 mmHg 77%
    08:00 +33°C° 0.1 mm 3 mps 757 mmHg 73%
    09:00 +34°C° 0.1 mm 3 mps 757 mmHg 68%
    10:00 +35°C° 0 mm 3 mps 757 mmHg 60%
    11:00 +37°C° 0 mm 4 mps 756 mmHg 53%
    12:00 +40°C° 0 mm 5 mps 756 mmHg 46%
    13:00 +41°C° 0 mm 5 mps 755 mmHg 43%
    14:00 +42°C° 0 mm 5 mps 754 mmHg 40%
    15:00 +42°C° 0 mm 6 mps 753 mmHg 37%
    16:00 +41°C° 0 mm 6 mps 753 mmHg 43%
    17:00 +39°C° 0 mm 6 mps 753 mmHg 48%
    18:00 +38°C° 0 mm 7 mps 753 mmHg 54%
    19:00 +35°C° 0 mm 7 mps 753 mmHg 61%
    20:00 +33°C° 0 mm 7 mps 754 mmHg 69%
    21:00 +32°C° 0 mm 7 mps 754 mmHg 77%
    22:00 +32°C° 0 mm 6 mps 754 mmHg 79%
    23:00 +30°C° 0 mm 6 mps 754 mmHg 81%

    3 May, Wednesday

    Time Temperature Precipitation Wind Pressure Humidity
    00:00 +30°C° 0 mm 6 mps 754 mmHg 83%
    01:00 +30°C° 0 mm 6 mps 754 mmHg 82%
    02:00 +30°C° 0 mm 5 mps 754 mmHg 81%
    03:00 +30°C° 0 mm 5 mps 754 mmHg 81%
    04:00 +30°C° 0 mm 5 mps 754 mmHg 81%
    05:00 +30°C° 0 mm 4 mps 754 mmHg 82%
    06:00 +30°C° 0 mm 3 mps 755 mmHg 83%
    07:00 +33°C° 0 mm 4 mps 755 mmHg 74%
    08:00 +34°C° 0 mm 5 mps 756 mmHg 65%
    09:00 +36°C° 0 mm 5 mps 756 mmHg 57%
    10:00 +39°C° 0 mm 6 mps 756 mmHg 48%
    11:00 +42°C° 0 mm 6 mps 755 mmHg 40%
    12:00 +45°C° 0 mm 6 mps 755 mmHg 32%
    13:00 +45°C° 0 mm 7 mps 754 mmHg 31%
    14:00 +45°C° 0 mm 7 mps 753 mmHg 31%
    15:00 +45°C° 0 mm 7 mps 752 mmHg 30%
    16:00 +43°C° 0 mm 7 mps 752 mmHg 37%
    17:00 +40°C° 0 mm 8 mps 752 mmHg 44%
    18:00 +38°C° 0 mm 8 mps 752 mmHg 51%
    19:00 +36°C° 0 mm 7 mps 752 mmHg 59%
    20:00 +34°C° 0 mm 7 mps 753 mmHg 67%
    21:00 +32°C° 0 mm 7 mps 754 mmHg 75%
    22:00 +32°C° 0 mm 6 mps 754 mmHg 76%
    23:00 +32°C° 0 mm 5 mps 754 mmHg 78%

    4 May, Thursday

    Time Temperature Precipitation Wind Pressure Humidity
    00:00 +30°C° 0 mm 5 mps 754 mmHg 79%
    01:00 +30°C° 0 mm 4 mps 753 mmHg 80%
    02:00 +30°C° 0 mm 4 mps 753 mmHg 81%
    03:00 +30°C° 0 mm 3 mps 753 mmHg 82%
    04:00 +30°C° 0 mm 4 mps 753 mmHg 82%
    05:00 +30°C° 0 mm 4 mps 753 mmHg 82%
    06:00 +30°C° 0 mm 5 mps 754 mmHg 82%
    07:00 +33°C° 0 mm 5 mps 754 mmHg 73%
    08:00 +35°C° 0 mm 6 mps 754 mmHg 64%
    09:00 +38°C° 0 mm 7 mps 755 mmHg 55%
    10:00 +40°C° 0 mm 7 mps 754 mmHg 48%
    11:00 +43°C° 0 mm 7 mps 754 mmHg 41%
    12:00 +45°C° 0 mm 7 mps 754 mmHg 34%
    13:00 +45°C° 0 mm 7 mps 753 mmHg 33%
    14:00 +45°C° 0 mm 7 mps 752 mmHg 32%
    15:00 +45°C° 0 mm 7 mps 751 mmHg 30%
    16:00 +43°C° 0 mm 7 mps 751 mmHg 37%
    17:00 +40°C° 0 mm 8 mps 751 mmHg 43%
    18:00 +38°C° 0 mm 8 mps 751 mmHg 49%
    19:00 +37°C° 0 mm 8 mps 752 mmHg 58%
    20:00 +34°C° 0 mm 8 mps 753 mmHg 66%
    21:00 +32°C° 0 mm 8 mps 753 mmHg 75%
    22:00 +32°C° 0 mm 7 mps 753 mmHg 76%
    23:00 +32°C° 0 mm 6 mps 753 mmHg 77%
    Show more